Weather History for Savoonga, AK

Change the Weather History Date:

Saturday, October 12, 2013

  Actual Average Record
Temperature  
Mean Temperature 35 °F -  
Max Temperature 35 °F 33 °F 57 °F (2000)
Min Temperature 35 °F 29 °F 19 °F (2005)
Degree Days  
Heating Degree Days 30    
Moisture  
Dew Point 33 °F    
Average Humidity 91    
Maximum Humidity 93    
Minimum Humidity 81    
Precipitation  
Precipitation 0.02 in - - ()
Sea Level Pressure  
Sea Level Pressure 29.54 in    
Wind  
Wind Speed 26 mph (NNE)    
Max Wind Speed 31 mph    
Max Gust Speed 43 mph    
Visibility 6 miles    
Events      
Averages and records for this station are not official NWS values.
T = Trace of Precipitation, MM = Missing Value Source: NWS Daily Summary

Daily Weather History Graph

Daily Weather History Graph

Search for Another Location

Airport:

Trip Planner

Search our weather history database for the weather conditions in past years. The results will help you decide how hot, cold, wet, or windy it might be!

Date:

Astronomy

Oct. 12, 2013 Rise Set
Actual Time 10:03 AM AKDT 8:11 PM AKDT
Civil Twilight 9:16 AM AKDT 8:59 PM AKDT
Nautical Twilight 8:21 AM AKDT 9:53 PM AKDT
Astronomical Twilight 7:25 AM AKDT 10:48 PM AKDT
Moon 6:20 PM AKDT (10/12) 1:16 AM AKDT (10/12)
Length of Visible Light 11h 43m
Length of Day
10h 08m
First Quarter, 60% of the Moon is Illuminated
Oct 12
First Quarter
Oct 18
Full
Oct 26
Last Quarter
Nov 3
New
Nov 9
First Quarter

Hourly Weather History & Observations

Time (AKDT) Temp. Windchill Dew Point Humidity Pressure Visibility Wind Dir Wind Speed Gust Speed Precip Events Conditions
12:16 AM 35.6 °F 23.7 °F 33.8 °F 93% 29.59 in 9.0 mi NNE 24.2 mph 33.4 mph N/A   Overcast
12:36 AM 35.6 °F 24.0 °F 33.8 °F 93% 29.59 in 10.0 mi NNE 23.0 mph 32.2 mph N/A   Overcast
12:56 AM 35.6 °F 23.4 °F 33.8 °F 93% 29.58 in 8.0 mi NNE 25.3 mph 31.1 mph N/A   Overcast
1:16 AM 35.6 °F 23.7 °F 33.8 °F 93% 29.58 in 7.0 mi NNE 24.2 mph 33.4 mph N/A   Overcast
1:36 AM 35.6 °F 24.5 °F 32.0 °F 87% 29.58 in 8.0 mi NNE 20.7 mph 32.2 mph N/A   Overcast
1:56 AM 35.6 °F 24.0 °F 33.8 °F 93% 29.58 in 5.0 mi NNE 23.0 mph 32.2 mph N/A   Scattered Clouds
2:16 AM 35.6 °F 23.7 °F 33.8 °F 93% 29.58 in 7.0 mi NNE 24.2 mph 34.5 mph N/A   Partly Cloudy
2:36 AM 35.6 °F 24.0 °F 33.8 °F 93% 29.58 in 5.0 mi NE 23.0 mph 35.7 mph N/A   Partly Cloudy
2:56 AM 35.6 °F 23.4 °F 33.8 °F 93% 29.58 in 5.0 mi NNE 25.3 mph 32.2 mph N/A   Partly Cloudy
3:16 AM 35.6 °F 23.0 °F 33.8 °F 93% 29.57 in 5.0 mi NNE 27.6 mph 38.0 mph N/A   Partly Cloudy
3:36 AM 35.6 °F 23.7 °F 33.8 °F 93% 29.57 in 7.0 mi NNE 24.2 mph 35.7 mph N/A   Clear
3:56 AM 35.6 °F 23.2 °F 33.8 °F 93% 29.57 in 7.0 mi NNE 26.5 mph 33.4 mph N/A   Mostly Cloudy
4:16 AM 35.6 °F 22.5 °F 33.8 °F 93% 29.56 in 7.0 mi NNE 29.9 mph 38.0 mph N/A   Overcast
4:36 AM 35.6 °F 22.7 °F 33.8 °F 93% 29.56 in 4.0 mi NNE 28.8 mph 35.7 mph N/A   Overcast
4:56 AM 35.6 °F 23.4 °F 33.8 °F 93% 29.56 in 4.0 mi NNE 25.3 mph 34.5 mph N/A   Overcast
5:16 AM 35.6 °F 22.5 °F 33.8 °F 93% 29.55 in 5.0 mi NNE 29.9 mph 35.7 mph N/A   Overcast
5:36 AM 35.6 °F 23.0 °F 33.8 °F 93% 29.55 in 4.0 mi NNE 27.6 mph 34.5 mph N/A   Overcast
5:56 AM 35.6 °F 22.7 °F 33.8 °F 93% 29.54 in 5.0 mi NNE 28.8 mph 38.0 mph N/A   Overcast
6:16 AM 35.6 °F 24.5 °F 33.8 °F 93% 29.55 in 5.0 mi NNE 20.7 mph 39.1 mph N/A   Overcast
6:36 AM 35.6 °F 23.0 °F 33.8 °F 93% 29.55 in 5.0 mi NNE 27.6 mph 38.0 mph N/A   Overcast
6:56 AM 35.6 °F 22.5 °F 33.8 °F 93% 29.54 in 5.0 mi NE 29.9 mph 38.0 mph N/A   Overcast
7:16 AM 35.6 °F 22.7 °F 33.8 °F 93% 29.54 in 4.0 mi NNE 28.8 mph 39.1 mph N/A   Overcast
7:36 AM 35.6 °F 23.2 °F 32.0 °F 87% 29.54 in 7.0 mi NE 26.5 mph 35.7 mph N/A   Overcast
7:56 AM 35.6 °F 22.5 °F 32.0 °F 87% 29.54 in 8.0 mi NNE 29.9 mph 35.7 mph N/A   Overcast
8:16 AM 35.6 °F 22.7 °F 30.2 °F 81% 29.54 in 10.0 mi NNE 28.8 mph 35.7 mph N/A   Overcast
8:36 AM 35.6 °F 23.0 °F 32.0 °F 87% 29.54 in 8.0 mi NNE 27.6 mph 40.3 mph N/A   Overcast
8:56 AM 35.6 °F 23.2 °F 32.0 °F 87% 29.54 in 9.0 mi NNE 26.5 mph 36.8 mph N/A   Overcast
9:16 AM 35.6 °F 23.2 °F 32.0 °F 87% 29.53 in 7.0 mi NNE 26.5 mph 41.4 mph N/A   Overcast
9:36 AM 35.6 °F 22.3 °F 32.0 °F 87% 29.53 in 9.0 mi NNE 31.1 mph 38.0 mph N/A   Overcast
9:56 AM 35.6 °F 23.2 °F 32.0 °F 87% 29.53 in 9.0 mi NNE 26.5 mph 39.1 mph N/A   Overcast
10:16 AM 35.6 °F 22.5 °F 32.0 °F 87% 29.53 in 8.0 mi NNE 29.9 mph 41.4 mph N/A   Overcast
10:36 AM 35.6 °F 23.2 °F 32.0 °F 87% 29.53 in 7.0 mi NNE 26.5 mph 40.3 mph N/A   Overcast
10:56 AM 35.6 °F 23.2 °F 32.0 °F 87% 29.54 in 5.0 mi NNE 26.5 mph 36.8 mph N/A   Overcast
11:16 AM 35.6 °F 22.7 °F 32.0 °F 87% 29.53 in 6.0 mi NNE 28.8 mph 38.0 mph N/A   Overcast
11:36 AM 35.6 °F 23.2 °F 32.0 °F 87% 29.53 in 5.0 mi NNE 26.5 mph 36.8 mph N/A   Overcast
11:56 AM 35.6 °F 22.3 °F 32.0 °F 87% 29.53 in 6.0 mi NNE 31.1 mph 39.1 mph N/A   Overcast
12:16 PM 35.6 °F 23.4 °F 32.0 °F 87% 29.53 in 6.0 mi NNE 25.3 mph 40.3 mph N/A   Overcast
12:36 PM 35.6 °F 23.0 °F 32.0 °F 87% 29.53 in 7.0 mi NNE 27.6 mph 39.1 mph N/A   Overcast
1:16 PM 35.6 °F 22.5 °F 32.0 °F 87% 29.53 in 5.0 mi NNE 29.9 mph 42.6 mph N/A   Mostly Cloudy
1:36 PM 35.6 °F 23.0 °F 32.0 °F 87% 29.52 in 8.0 mi NNE 27.6 mph 38.0 mph N/A   Overcast
1:56 PM 35.6 °F 23.0 °F 32.0 °F 87% 29.52 in 6.0 mi NNE 27.6 mph 36.8 mph N/A   Mostly Cloudy
2:16 PM 35.6 °F 22.5 °F 33.8 °F 93% 29.52 in 6.0 mi NNE 29.9 mph 36.8 mph N/A   Partly Cloudy
2:36 PM 35.6 °F 23.0 °F 33.8 °F 93% 29.52 in 6.0 mi NNE 27.6 mph 35.7 mph N/A   Mostly Cloudy
2:56 PM 35.6 °F 22.5 °F 33.8 °F 93% 29.51 in 5.0 mi NNE 29.9 mph 40.3 mph N/A   Overcast
3:16 PM 35.6 °F 22.7 °F 33.8 °F 93% 29.51 in 4.0 mi NNE 28.8 mph 36.8 mph N/A   Scattered Clouds
3:36 PM 35.6 °F 23.0 °F 33.8 °F 93% 29.51 in 4.0 mi NNE 27.6 mph 35.7 mph N/A   Mostly Cloudy
3:56 PM 35.6 °F 23.2 °F 33.8 °F 93% 29.51 in 5.0 mi NNE 26.5 mph 34.5 mph N/A   Overcast
4:16 PM 35.6 °F 24.2 °F 33.8 °F 93% 29.51 in 5.0 mi NNE 21.9 mph 35.7 mph N/A   Overcast
4:36 PM 35.6 °F 23.4 °F 33.8 °F 93% 29.51 in 6.0 mi NNE 25.3 mph 33.4 mph N/A   Overcast
4:56 PM 35.6 °F 23.2 °F 33.8 °F 93% 29.51 in 5.0 mi NNE 26.5 mph 33.4 mph 0.01 in   Overcast
5:16 PM 35.6 °F 24.5 °F 33.8 °F 93% 29.50 in 6.0 mi NNE 20.7 mph 35.7 mph N/A   Overcast
5:36 PM 35.6 °F 23.0 °F 33.8 °F 93% 29.50 in 5.0 mi NNE 27.6 mph 34.5 mph N/A   Overcast
5:56 PM 35.6 °F 24.2 °F 33.8 °F 93% 29.51 in 5.0 mi NNE 21.9 mph 31.1 mph 0.01 in   Overcast
6:16 PM 35.6 °F 24.0 °F 33.8 °F 93% 29.51 in 5.0 mi NNE 23.0 mph 34.5 mph N/A   Overcast
6:36 PM 35.6 °F 22.7 °F 33.8 °F 93% 29.51 in 5.0 mi NNE 28.8 mph 34.5 mph N/A   Overcast
6:56 PM 35.6 °F 24.8 °F 33.8 °F 93% 29.52 in 5.0 mi NNE 19.6 mph 33.4 mph N/A   Overcast
7:16 PM 35.6 °F 23.0 °F 33.8 °F 93% 29.51 in 5.0 mi NNE 27.6 mph 33.4 mph N/A   Overcast
7:36 PM 35.6 °F 24.2 °F 33.8 °F 93% 29.52 in 7.0 mi NNE 21.9 mph 34.5 mph N/A   Overcast
7:56 PM 35.6 °F 23.2 °F 33.8 °F 93% 29.52 in 5.0 mi NNE 26.5 mph 38.0 mph N/A   Overcast
8:16 PM 35.6 °F 23.2 °F 33.8 °F 93% 29.52 in 5.0 mi NNE 26.5 mph 35.7 mph N/A   Overcast
8:36 PM 35.6 °F 23.2 °F 32.0 °F 87% 29.52 in 8.0 mi NNE 26.5 mph 36.8 mph N/A   Overcast
8:56 PM 35.6 °F 22.3 °F 32.0 °F 87% 29.51 in 9.0 mi NNE 31.1 mph 36.8 mph N/A   Overcast
9:16 PM 35.6 °F 23.4 °F 33.8 °F 93% 29.52 in 7.0 mi NNE 25.3 mph 34.5 mph N/A   Overcast
9:36 PM 35.6 °F 23.4 °F 32.0 °F 87% 29.52 in 7.0 mi North 25.3 mph 31.1 mph N/A   Overcast
9:56 PM 35.6 °F 23.2 °F 32.0 °F 87% 29.52 in 5.0 mi NNE 26.5 mph 32.2 mph N/A   Overcast
10:16 PM 35.6 °F 23.7 °F 32.0 °F 87% 29.53 in 5.0 mi NNE 24.2 mph 35.7 mph N/A   Overcast
10:36 PM 35.6 °F 23.4 °F 32.0 °F 87% 29.53 in 4.0 mi NNE 25.3 mph 34.5 mph N/A   Overcast
10:56 PM 35.6 °F 23.2 °F 33.8 °F 93% 29.53 in 3.0 mi North 26.5 mph 36.8 mph N/A   Overcast
11:16 PM 35.6 °F 23.4 °F 33.8 °F 93% 29.53 in 3.0 mi North 25.3 mph 34.5 mph N/A   Overcast
11:36 PM 35.6 °F 23.2 °F 33.8 °F 93% 29.53 in 3.0 mi North 26.5 mph 33.4 mph N/A   Overcast
11:56 PM 35.6 °F 23.2 °F 33.8 °F 93% 29.53 in 3.0 mi NNE 26.5 mph 33.4 mph N/A   Overcast